Date String (YYYY-MM-DD hh:mm:ss) UTC,Instrument flags,absolute air pressure of the measurement (hPa),sample flow rate (lpm),inlet stack bypass flow (lpm),air temperature of the measurement (°C),ambient temperature measured by the external sensor (°C),aerosol sample conditioner tube jacket temperature (°C),OPC LED temperature (°C),internal box temperature (°C),relative humidity of the measurement (%),span deviation,mass concentration of particles derived from Lorenz-Mie calculation of OPC scattering (μg/m³),mass concentration of particles derived from Lorenz-Mie calculation of OPC scattering (μg/m³),mass concentration of particles derived from Lorenz-Mie calculation of OPC scattering (μg/m³)
DateTimeUTC,F1_M11,P_M11,Q1_M11,Q2_M11,T1_M11,T2_M11,T3_M11,T4_M11,T5_M11,U1_M11,ZSPAN_M11,X2_M11,X0_M11,X1_M11
2023-08-20 00:00:00,SystemResetWarning,0833.1,5.00,000.00,028.3,026.1,000.0,036.5,029.7,33.2,0000.0,0003.37,0008.78,0002.58
2023-08-20 00:01:00,SystemResetWarning,0833.2,4.99,000.00,028.4,025.8,000.0,036.5,029.6,33.2,0000.0,0003.36,0008.32,0002.56
2023-08-20 00:02:00,SystemResetWarning,0833.0,5.00,000.00,028.3,024.5,000.0,036.4,029.4,32.5,0000.0,0003.30,0007.75,0002.54
2023-08-20 00:03:00,SystemResetWarning,0833.0,5.01,000.00,028.2,024.0,000.0,036.3,029.2,32.7,0000.0,0003.26,0008.03,0002.52
2023-08-20 00:04:00,SystemResetWarning,0833.3,5.01,000.00,028.2,024.2,000.0,036.3,029.2,33.3,0000.0,0003.29,0008.53,0002.52
2023-08-20 00:05:00,SystemResetWarning,0832.9,5.00,000.00,028.1,024.6,000.0,036.3,029.2,34.1,0000.0,0003.28,0008.58,0002.51
2023-08-20 00:06:00,SystemResetWarning,0833.0,5.00,000.00,028.1,025.0,000.0,036.3,029.3,34.2,0000.0,0003.31,0008.18,0002.50
2023-08-20 00:07:00,SystemResetWarning,0832.9,5.00,000.00,028.1,025.5,000.0,036.3,029.5,34.4,0000.0,0003.31,0007.98,0002.50
2023-08-20 00:08:00,SystemResetWarning,0833.1,5.00,000.00,028.2,025.9,000.0,036.4,029.6,33.7,0000.0,0003.30,0007.94,0002.49
2023-08-20 00:09:00,SystemResetWarning,0833.2,5.00,000.00,028.2,026.2,000.0,036.4,029.7,34.0,0000.0,0003.30,0007.96,0002.49
2023-08-20 00:10:00,SystemResetWarning,0833.0,4.98,000.00,028.2,025.2,000.0,036.3,029.5,33.0,0000.0,0003.30,0008.10,0002.49
2023-08-20 00:11:00,SystemResetWarning,0832.9,5.01,000.00,028.1,024.1,000.0,036.2,029.2,33.0,0000.0,0003.29,0008.15,0002.49
2023-08-20 00:12:00,SystemResetWarning,0832.8,5.01,000.00,028.0,024.0,000.0,036.2,029.1,32.8,0000.0,0003.30,0008.15,0002.49
2023-08-20 00:13:00,SystemResetWarning,0832.8,5.00,000.00,028.0,024.4,000.0,036.2,029.1,32.1,0000.0,0003.33,0008.45,0002.49
2023-08-20 00:14:00,SystemResetWarning,0832.8,5.00,000.00,027.9,024.8,000.0,036.2,029.2,32.5,0000.0,0003.35,0008.77,0002.48
2023-08-20 00:15:00,SystemResetWarning,0832.9,5.00,000.00,028.0,025.2,000.0,036.2,029.3,32.6,0000.0,0003.35,0007.95,0002.48
2023-08-20 00:16:00,SystemResetWarning,0833.0,5.00,000.00,028.0,025.7,000.0,036.2,029.5,33.1,0000.0,0003.34,0007.76,0002.48
2023-08-20 00:17:00,SystemResetWarning,0833.3,5.00,000.00,028.0,026.1,000.0,036.3,029.6,32.8,0000.0,0003.33,0008.17,0002.48
2023-08-20 00:18:00,SystemResetWarning,0833.2,5.01,000.00,028.1,026.3,000.0,036.3,029.7,32.6,0000.0,0003.32,0008.40,0002.48
2023-08-20 00:19:00,SystemResetWarning,0833.4,4.99,000.00,028.1,025.4,000.0,036.2,029.5,32.6,0000.0,0003.36,0009.26,0002.49
2023-08-20 00:20:00,SystemResetWarning,0833.2,5.00,000.00,028.0,024.2,000.0,036.1,029.3,32.7,0000.0,0003.36,0009.29,0002.51
2023-08-20 00:21:00,SystemResetWarning,0832.9,5.03,000.00,028.0,024.1,000.0,036.1,029.2,32.7,0000.0,0003.38,0009.27,0002.51
2023-08-20 00:22:00,SystemResetWarning,0833.0,4.99,000.00,027.9,024.4,000.0,036.1,029.1,31.8,0000.0,0003.41,0009.22,0002.52
2023-08-20 00:23:00,SystemResetWarning,0833.2,5.00,000.00,027.9,024.8,000.0,036.1,029.2,31.6,0000.0,0003.44,0009.53,0002.53
2023-08-20 00:24:00,SystemResetWarning,0833.2,5.01,000.00,027.9,025.3,000.0,036.2,029.3,31.6,0000.0,0003.43,0009.50,0002.53
2023-08-20 00:25:00,SystemResetWarning,0833.1,5.00,000.00,027.9,025.7,000.0,036.2,029.5,31.8,0000.0,0003.44,0009.10,0002.53
2023-08-20 00:26:00,SystemResetWarning,0833.2,5.00,000.00,028.0,026.0,000.0,036.2,029.6,31.5,0000.0,0003.50,0008.92,0002.53
2023-08-20 00:27:00,SystemResetWarning,0833.2,4.99,000.00,028.0,025.2,000.0,036.1,029.4,31.6,0000.0,0003.49,0008.91,0002.53
2023-08-20 00:28:00,SystemResetWarning,0833.2,5.00,000.00,027.9,024.1,000.0,036.0,029.2,31.5,0000.0,0003.48,0008.95,0002.54
2023-08-20 00:29:00,SystemResetWarning,0833.2,5.01,000.00,027.8,024.0,000.0,036.0,029.1,32.8,0000.0,0003.49,0008.91,0002.55
2023-08-20 00:30:00,SystemResetWarning,0833.3,5.01,000.00,027.8,024.3,000.0,036.0,029.0,33.3,0000.0,0003.44,0008.13,0002.56
2023-08-20 00:31:00,SystemResetWarning,0833.4,4.99,000.00,027.7,024.7,000.0,036.0,029.1,32.9,0000.0,0003.44,0008.98,0002.57
2023-08-20 00:32:00,SystemResetWarning,0833.4,5.00,000.00,027.8,025.2,000.0,036.1,029.3,32.4,0000.0,0003.45,0009.29,0002.57
2023-08-20 00:33:00,SystemResetWarning,0833.4,5.00,000.00,027.8,025.7,000.0,036.1,029.4,32.1,0000.0,0003.45,0009.12,0002.58
2023-08-20 00:34:00,SystemResetWarning,0833.5,5.00,000.00,027.9,026.1,000.0,036.1,029.5,31.6,0000.0,0003.43,0008.94,0002.57
2023-08-20 00:35:00,SystemResetWarning,0833.5,5.00,000.00,027.9,026.4,000.0,036.1,029.6,31.5,0000.0,0003.43,0009.16,0002.57
2023-08-20 00:36:00,SystemResetWarning,0833.5,4.98,000.00,027.9,025.5,000.0,036.1,029.4,31.5,0000.0,0003.44,0009.27,0002.59
2023-08-20 00:37:00,SystemResetWarning,0833.4,5.00,000.00,027.8,024.3,000.0,036.0,029.1,31.7,0000.0,0003.37,0009.13,0002.59
2023-08-20 00:38:00,SystemResetWarning,0833.4,5.02,000.00,027.8,024.1,000.0,035.9,029.1,31.8,0000.0,0003.37,0009.03,0002.58
2023-08-20 00:39:00,SystemResetWarning,0833.5,5.00,000.00,027.7,024.4,000.0,036.0,029.1,32.3,0000.0,0003.37,0008.68,0002.59
2023-08-20 00:40:00,SystemResetWarning,0833.4,5.00,000.00,027.7,024.8,000.0,036.0,029.2,32.9,0000.0,0003.37,0008.62,0002.60
2023-08-20 00:41:00,SystemResetWarning,0833.5,5.01,000.00,027.7,025.3,000.0,036.0,029.3,32.7,0000.0,0003.43,0008.64,0002.60
2023-08-20 00:42:00,SystemResetWarning,0833.5,5.00,000.00,027.8,025.8,000.0,036.1,029.4,32.5,0000.0,0003.47,0007.91,0002.61
2023-08-20 00:43:00,SystemResetWarning,0833.5,5.00,000.00,027.8,026.1,000.0,036.1,029.6,32.4,0000.0,0003.48,0007.63,0002.63
2023-08-20 00:44:00,SystemResetWarning,0833.5,4.99,000.00,027.9,026.1,000.0,036.1,029.6,32.8,0000.0,0003.47,0007.56,0002.64
2023-08-20 00:45:00,SystemResetWarning,0833.4,4.99,000.00,027.9,024.7,000.0,036.0,029.3,32.6,0000.0,0003.48,0007.83,0002.67
2023-08-20 00:46:00,SystemResetWarning,0833.4,5.01,000.00,027.8,024.0,000.0,035.9,029.2,32.5,0000.0,0003.48,0007.63,0002.67
2023-08-20 00:47:00,SystemResetWarning,0833.3,5.01,000.00,027.7,024.2,000.0,035.9,029.1,32.3,0000.0,0003.46,0007.48,0002.66
2023-08-20 00:48:00,SystemResetWarning,0833.4,5.00,000.00,027.7,024.6,000.0,035.9,029.1,31.8,0000.0,0003.48,0007.48,0002.67
2023-08-20 00:49:00,SystemResetWarning,0833.4,5.00,000.00,027.7,025.1,000.0,036.0,029.2,32.1,0000.0,0003.51,0007.57,0002.69
2023-08-20 00:50:00,SystemResetWarning,0833.4,5.00,000.00,027.7,025.5,000.0,036.0,029.4,33.3,0000.0,0003.52,0007.61,0002.68
2023-08-20 00:51:00,SystemResetWarning,0833.4,5.00,000.00,027.8,025.9,000.0,036.0,029.5,34.0,0000.0,0003.52,0007.61,0002.68
2023-08-20 00:52:00,SystemResetWarning,0833.4,5.00,000.00,027.9,026.2,000.0,036.0,029.6,34.2,0000.0,0003.51,0007.57,0002.69
2023-08-20 00:53:00,SystemResetWarning,0833.4,4.98,000.00,027.9,025.5,000.0,036.0,029.5,34.3,0000.0,0003.50,0007.54,0002.70
2023-08-20 00:54:00,SystemResetWarning,0833.5,5.00,000.00,027.8,024.3,000.0,035.9,029.2,34.7,0000.0,0003.46,0007.68,0002.67
2023-08-20 00:55:00,SystemResetWarning,0833.4,4.99,000.00,027.7,024.0,000.0,035.9,029.1,35.0,0000.0,0003.44,0007.60,0002.65
2023-08-20 00:56:00,SystemResetWarning,0833.4,5.02,000.00,027.8,024.3,000.0,035.9,029.1,35.4,0000.0,0003.42,0007.26,0002.63
2023-08-20 00:57:00,SystemResetWarning,0833.4,5.00,000.00,028.0,024.7,000.0,035.9,029.3,35.4,0000.0,0003.44,0007.99,0002.62
2023-08-20 00:58:00,SystemResetWarning,0833.4,5.01,000.00,028.4,025.2,000.0,036.0,029.6,34.7,0000.0,0003.46,0008.20,0002.63
2023-08-20 00:59:00,SystemResetWarning,0833.5,4.97,000.00,028.7,025.6,000.0,036.0,029.8,34.1,0000.0,0003.43,0008.16,0002.62
